Wind_Speed
27 31 32 32 25 18 12 16 13 12 12 14 13 12 11 10 10 9 9 9 9 9 8 9 9 10 8 7 5 6 5 4 4 4 2 1 4 3 4 4 6 6 5
27 25 25 26 20 13 12 18 15 13 16 15 13 12 11 10 10 10 8 7 8 9 9 10 10 8 8 7 6 4 2 1 1 1 0 1 1 3 3 3 3 4 6
26 21 19 17 16 17 17 17 16 16 15 14 13 12 11 10 9 9 9 9 8 7 8 8 7 6 6 6 4 5 4 4 2 2 3 4 4 4 5 6 6 7 7
20 21 21 19 18 18 18 17 16 15 14 12 10 10 9 10 9 9 8 7 7 6 5 4 5 4 4 4 5 5 5 5 4 5 6 6 7 5 7 7 9 8 10
21 17 16 17 16 15 14 12 11 11 10 10 10 10 11 11 10 10 8 6 6 5 6 6 5 6 7 6 5 6 6 7 6 6 7 7 9 9 9 9 12 12 14
14 16 15 16 15 14 13 12 11 10 10 10 10 10 9 7 8 8 7 7 7 6 6 5 6 7 8 9 9 10 10 9 9 9 9 10 13 12 11 11 11 13 13
11 13 14 14 13 14 13 11 11 11 10 9 8 8 8 7 8 8 9 9 8 7 7 8 8 9 9 8 10 11 13 14 14 12 14 14 12 11 10 11 11 12 15
12 13 14 15 14 12 13 13 12 11 10 9 9 10 9 10 11 10 9 10 10 12 11 11 11 12 12 12 11 12 13 14 15 15 17 18 15 15 14 14 14 15 19
13 14 15 15 15 15 14 14 13 12 12 12 11 10 10 9 9 10 11 10 11 11 11 12 12 13 15 13 13 15 16 18 17 21 23 23 22 20 20 16 18 19 21
15 15 15 16 16 16 16 16 14 13 11 10 9 10 11 12 10 10 10 10 11 11 11 13 15 16 15 14 15 14 17 19 15 16 16 18 20 21 21 20 18 18 20
15 15 15 16 15 15 14 13 12 11 10 10 10 11 12 11 10 10 11 12 12 11 11 11 11 11 10 13 17 18 21 18 17 18 19 20 19 18 15 13 14 15 17
16 16 15 15 14 13 13 12 12 12 11 10 9 10 11 11 11 11 10 11 12 12 13 13 13 16 15 14 15 20 21 22 20 19 19 21 19 19 19 14 11 13 14
17 17 16 15 14 14 14 12 11 10 11 10 9 9 9 8 9 9 10 11 12 15 16 16 17 18 18 19 19 20 18 17 17 18 20 21 20 19 16 14 13 11 12
19 17 16 16 15 14 13 12 11 10 11 10 10 11 10 10 9 9 9 10 11 13 15 16 19 21 22 22 22 17 16 15 14 17 19 18 13 13 15 13 12 13 13
17 15 15 16 15 13 13 12 12 12 11 10 9 8 8 8 7 6 6 6 7 10 15 15 15 14 14 14 13 13 10 10 11 12 12 13 15 14 14 12 14 14 11
16 16 16 15 14 13 12 12 15 16 16 14 16 16 13 15 14 13 12 13 15 17 14 14 15 13 11 10 9 10 10 9 8 9 10 11 13 13 13 14 13 11 10
20 18 17 18 15 14 14 14 14 13 14 18 19 17 18 17 18 18 17 18 19 18 13 12 9 8 8 8 9 8 7 6 7 8 10 12 13 14 15 13 12 10 10
22 21 17 16 17 16 15 14 12 11 9 9 11 15 17 19 21 21 21 20 14 14 11 10 8 7 8 8 6 6 7 8 9 10 11 12 13 11 12 14 12 10 7
22 20 19 19 18 17 14 12 12 11 12 14 13 14 14 12 14 16 16 15 13 12 10 10 8 8 8 7 7 7 7 8 8 7 8 10 13 12 13 11 7 7 7
22 26 22 19 18 18 18 15 14 13 14 15 15 15 8 10 9 9 12 12 14 13 11 12 10 9 9 9 8 7 8 8 8 10 11 11 11 11 8 6 7 8 9
21 22 26 23 21 21 20 18 16 16 16 16 16 16 17 13 14 14 14 15 16 15 13 13 11 11 11 10 8 8 10 11 12 12 13 12 9 10 10 10 10 10 9
19 19 18 20 22 19 18 18 17 17 18 17 19 18 19 18 16 17 15 16 17 16 16 15 14 13 13 11 9 10 11 11 12 13 13 13 13 13 12 12 11 12 13
16 18 18 18 18 18 17 18 18 18 19 20 20 20 18 18 19 18 18 18 19 18 18 17 15 15 14 12 11 11 12 12 12 12 13 15 16 15 14 13 13 12 12
14 15 18 18 17 15 17 19 19 20 21 22 22 21 21 21 21 20 19 18 17 19 20 20 18 18 16 15 13 11 11 11 10 11 13 14 13 12 13 12 12 13 14
16 14 15 17 16 15 17 19 20 22 21 21 22 21 21 20 20 19 18 16 18 20 23 23 21 21 21 17 13 11 11 12 11 11 9 9 10 11 12 12 12 14 15
17 17 16 16 16 17 19 20 21 21 21 21 21 21 20 19 19 18 17 18 19 22 22 22 23 23 21 18 16 15 12 10 10 10 8 9 11 12 13 13 13 15 16
Wind_Direction
177 181 181 175 193 221 224 218 205 192 193 198 191 180 174 167 168 166 168 165 167 159 145 147 138 141 141 138 138 124 120 124 146 135 197 300 332 306 290 287 286 286 285
169 170 174 176 195 223 201 219 199 188 181 188 191 190 186 183 181 177 163 166 160 156 149 145 145 149 151 160 162 155 153 110 108 166 151 263 282 310 304 276 274 270 285
164 166 175 173 169 167 164 167 170 175 173 175 178 178 173 171 167 169 170 165 165 164 159 161 153 159 164 172 170 181 189 206 208 266 283 285 290 280 295 293 300 287 300
160 163 162 155 155 154 159 163 165 169 172 177 179 180 178 173 167 167 166 166 175 175 178 177 180 196 197 188 200 208 206 213 223 259 267 274 281 273 283 289 305 293 299
140 139 140 143 137 146 147 152 167 173 173 178 176 165 159 163 169 174 176 184 194 196 205 212 223 228 225 224 234 236 232 238 242 257 267 273 278 280 282 296 296 307 303
134 133 139 134 143 148 155 166 170 168 162 164 165 165 167 170 188 183 185 197 208 214 222 229 241 248 250 256 257 250 242 246 252 255 266 270 280 278 282 276 290 299 306
127 138 141 144 152 160 168 169 170 169 168 175 173 179 188 189 190 192 203 218 228 239 247 250 254 254 257 252 255 254 256 260 258 258 264 271 279 292 293 291 289 283 286
150 153 156 159 164 171 171 174 174 174 177 178 187 192 196 202 204 213 227 241 248 250 251 255 257 258 253 249 251 257 261 262 257 251 250 259 261 269 269 272 277 281 283
162 167 169 170 168 173 175 178 178 180 187 192 197 205 216 224 227 234 236 240 248 257 261 260 257 260 259 264 258 258 264 264 264 263 258 264 273 272 270 271 271 276 283
172 173 171 170 173 177 181 181 185 191 195 202 216 226 235 242 241 234 244 249 257 263 265 266 268 266 269 262 257 255 261 265 266 264 267 277 279 278 280 266 264 271 283
172 173 177 178 179 182 181 187 195 205 215 224 236 233 237 244 246 239 245 252 258 268 273 277 273 283 277 261 248 245 249 263 269 273 274 275 277 280 276 262 261 257 277
174 178 183 186 186 189 195 202 213 220 227 229 233 243 247 249 253 258 257 258 263 260 267 272 269 288 296 283 265 259 264 267 269 272 273 275 280 283 283 279 266 266 265
182 186 190 193 198 203 210 216 211 213 222 231 240 251 255 251 258 266 260 255 254 254 263 270 278 286 287 285 281 274 272 264 256 260 271 279 281 282 279 281 282 276 286
190 194 200 202 207 212 214 213 217 220 229 242 255 263 265 261 252 239 243 250 256 260 269 276 276 276 275 273 270 274 270 263 255 266 275 279 282 278 283 282 281 282 279
195 199 205 207 205 206 214 219 226 237 240 251 259 266 268 264 253 249 262 255 253 259 266 275 274 273 272 271 270 272 269 259 262 269 269 275 280 278 275 276 273 279 279
198 204 205 206 207 216 225 236 243 249 257 260 271 263 267 273 279 287 285 278 278 280 273 266 270 270 268 269 270 279 276 273 272 275 278 279 276 270 272 272 275 264 260
208 211 211 213 219 225 230 241 256 261 271 264 257 253 263 270 277 277 273 272 272 273 257 256 252 258 266 272 277 273 269 265 271 280 282 279 275 272 268 262 256 244 247
217 222 219 222 225 231 234 239 249 261 266 253 246 252 263 276 278 268 260 261 259 257 240 247 255 252 258 257 244 254 266 279 285 293 292 279 272 262 262 265 253 227 247
220 226 228 227 227 233 235 237 244 253 260 268 275 273 281 272 277 265 259 246 241 236 239 248 238 238 234 230 242 251 265 278 282 286 282 276 280 269 265 261 240 227 247
230 236 236 235 230 234 238 235 245 249 253 261 269 273 273 282 279 265 258 247 238 236 243 234 229 222 221 226 237 256 265 271 272 270 281 292 287 270 259 248 237 238 243
235 239 237 236 238 236 237 237 242 248 254 260 266 275 274 265 268 256 252 244 236 236 236 225 223 222 219 223 233 246 263 273 278 279 282 283 268 245 244 241 241 240 253
229 233 229 225 232 231 231 239 242 249 255 260 270 277 279 272 262 259 252 245 239 245 228 219 216 217 218 226 234 255 266 270 278 278 277 278 271 257 235 232 234 247 267
228 230 229 229 227 227 227 239 245 251 256 262 267 270 264 260 259 253 254 254 249 238 219 215 215 218 218 225 232 242 257 265 275 276 279 282 276 262 246 236 238 258 275
233 236 237 226 223 226 231 242 250 256 260 264 266 267 266 265 262 257 256 261 247 226 218 226 221 220 222 220 225 234 247 256 263 276 279 277 270 246 234 240 253 271 286
235 231 228 224 225 229 242 250 255 258 261 263 265 266 268 269 263 258 264 258 238 223 229 230 226 222 221 219 222 227 237 254 270 271 267 256 250 243 247 259 273 278 279
234 232 234 231 234 243 249 253 255 259 263 269 274 273 272 273 266 262 266 256 240 230 233 232 228 219 216 214 216 214 228 259 274 287 261 253 248 252 260 268 271 273 277
Height
794 798 799 798 804 805 812 819 815 822 827 834 837 837 837 836 838 840 842 842 844 844 845 846 846 847 848 850 850 849 850 848 848 850 853 853 854 853 852 850 850 849 848
790 795 797 794 798 804 806 814 818 821 825 832 836 836 836 837 839 841 842 844 845 846 847 846 847 848 849 850 850 849 851 850 850 851 852 852 850 852 852 849 848 848 846
790 794 799 799 798 802 808 814 819 823 827 832 835 835 834 835 837 839 842 844 846 848 847 847 848 849 850 850 849 850 850 852 851 850 851 852 851 850 852 849 847 846 844
790 795 796 797 800 804 810 815 819 824 828 832 833 832 832 833 837 841 843 844 847 847 848 848 847 850 851 850 850 851 850 851 849 849 850 850 850 847 848 847 845 844 841
793 795 797 798 801 806 811 816 819 823 827 828 829 830 831 834 837 839 841 844 847 847 848 847 846 848 848 848 849 850 850 849 847 848 848 848 847 846 846 844 842 840 838
793 795 798 799 805 809 812 817 821 823 824 828 830 831 831 834 835 838 841 844 847 848 846 844 844 844 846 846 846 847 847 847 846 845 844 844 845 844 842 841 839 837 833
794 798 800 803 806 809 813 817 820 823 825 828 828 830 832 833 836 839 841 844 843 842 842 842 842 843 842 843 843 842 843 842 841 843 844 843 843 842 840 838 836 834 831
797 800 802 805 809 812 815 818 821 823 825 826 829 831 833 835 837 838 838 837 838 839 838 838 838 838 839 839 839 839 838 837 838 839 840 839 838 836 834 833 832 830 827
798 801 804 806 810 814 816 819 821 824 826 828 830 830 830 832 832 832 834 834 835 833 833 833 833 833 833 833 834 834 833 833 834 833 834 833 832 830 829 830 827 825 819
798 802 805 808 811 814 817 819 821 824 825 826 826 826 827 827 828 828 829 830 830 829 828 827 827 827 827 828 829 830 829 828 829 830 829 826 824 822 821 820 821 819 816
799 802 805 807 810 813 815 817 819 820 821 822 822 822 823 823 823 823 824 824 824 824 823 823 823 822 822 823 823 824 823 823 824 823 821 819 818 816 816 814 813 813 810
798 802 805 807 809 811 813 814 816 817 817 818 819 819 818 817 817 817 818 818 819 819 819 818 818 817 817 817 817 816 817 818 819 818 815 812 811 810 810 809 807 805 805
796 799 802 804 806 808 809 811 812 813 814 814 814 813 812 812 811 811 812 813 813 813 812 813 812 812 811 810 809 809 810 810 810 809 807 806 805 804 803 802 801 799 797
793 795 798 800 802 804 805 807 808 808 808 808 808 808 807 806 806 805 806 806 807 807 807 806 806 805 805 804 803 803 802 803 803 803 801 800 799 799 798 797 796 795 793
789 791 794 796 798 799 800 801 801 801 802 802 802 802 802 800 799 800 801 802 803 803 802 801 800 799 798 798 798 797 797 797 797 796 795 794 794 793 792 792 792 791 790
785 788 789 791 793 794 796 796 795 796 796 796 796 797 796 795 794 795 795 795 795 796 796 795 794 793 793 793 792 792 792 792 792 792 791 791 790 789 788 787 787 788 787
779 781 784 786 787 789 790 791 791 790 789 789 789 790 790 789 789 789 789 789 789 789 789 788 788 788 788 788 788 788 787 788 788 788 787 787 786 784 784 783 782 782 782
774 777 779 780 782 784 784 785 785 785 784 783 783 783 783 782 782 781 781 781 782 781 782 783 782 782 783 783 783 783 784 784 784 783 783 781 779 778 777 776 776 777 778
768 770 771 774 776 777 779 780 780 780 780 779 778 777 776 775 774 774 774 774 775 775 776 776 776 777 777 778 779 780 780 780 779 778 777 776 774 772 771 771 771 772 774
762 763 766 768 770 771 773 773 774 774 774 774 773 771 772 770 769 769 768 768 769 768 769 769 770 771 772 773 774 775 775 775 774 773 771 770 769 768 768 769 769 770 770
755 757 758 762 763 764 765 765 766 767 768 767 766 765 764 764 763 762 762 761 761 761 762 763 764 766 767 768 768 768 769 768 768 768 766 766 765 765 765 766 766 766 766
748 749 751 753 755 756 757 759 759 760 761 760 759 758 756 756 756 755 753 753 753 753 753 755 756 758 760 762 762 763 763 762 762 762 761 761 760 760 760 760 761 761 760
743 744 745 746 747 748 750 753 753 754 753 752 751 750 750 748 747 745 745 745 744 744 745 746 748 750 751 753 754 756 756 756 757 757 756 756 755 755 756 756 756 756 756
736 737 738 739 741 742 744 745 745 745 745 744 743 742 740 739 738 736 736 736 736 736 737 738 739 741 743 744 746 748 749 750 751 750 750 749 749 749 750 751 751 750 749
730 731 732 734 734 735 737 738 738 737 736 736 734 733 731 730 729 728 727 727 727 726 728 727 731 732 734 736 739 741 743 744 743 743 743 743 743 744 744 743 743 744 745
723 725 726 727 728 729 729 729 729 728 728 727 726 725 723 721 719 719 718 717 717 718 718 720 721 723 726 728 730 732 735 737 738 738 738 738 738 738 739 739 739 739 738